Location: Passau
(48.5830°N, 13.4830°E)
Time: 05:17:25
(UTC+02:00)

Vanguard 1 - Pass Details

Date: 28 July 2021
Orbit: 652 x 3831 km, 34.3° (Epoch: 16 September)

Event Time Altitude Azimuth Distance (km) Brightness Sun altitude
Rises 11:32:04 0° 196° (SSW) 3,170 12.9 54.0°
Reaches altitude 10° 11:36:11 10° 161° (SSE) 2,589 13.0 54.5°
Maximum altitude 11:38:02 11° 142° (SE) 2,674 13.1 54.7°
Drops below altitude 10° 11:40:07 10° 125° (SE) 3,007 13.3 54.9°
Sets 11:46:18 0° 96° (E) 4,725 13.9 55.6°
